| time (UTC) | temp F | wind direction | speed knots | gust knots | rain 1hr in | rain 24hr in | rain mn in | humidity % | barometer mb |
| 20260509173048 | 58 | 292 | 6.1 | 17.4 | 0.00 | 0.00 | 0.00 | 29 | 1000.0 |
| 20260509171542 | 57 | 296 | 7.0 | 16.5 | 0.00 | 0.00 | 0.00 | 27 | 999.7 |
| 20260509170042 | 56 | 301 | 6.1 | 19.1 | 0.00 | 0.00 | 0.00 | 31 | 999.6 |
| 20260509164539 | 57 | 260 | 4.3 | 16.5 | 0.00 | 0.00 | 0.00 | 30 | 999.5 |
| 20260509163042 | 57 | 260 | 6.1 | 16.5 | 0.00 | 0.00 | 0.00 | 27 | 999.2 |
| 20260509161549 | 59 | 283 | 7.8 | 19.1 | 0.00 | 0.00 | 0.00 | 26 | 998.8 |
| 20260509160042 | 59 | 334 | 4.3 | 16.5 | 0.00 | 0.00 | 0.00 | 29 | 998.4 |
| 20260509154540 | 57 | 254 | 4.3 | 11.3 | 0.00 | 0.00 | 0.00 | 37 | 998.3 |
| 20260509153051 | 56 | 326 | 1.7 | 14.8 | 0.00 | 0.00 | 0.00 | 44 | 998.4 |
| 20260509151544 | 57 | 347 | 3.5 | 11.3 | 0.00 | 0.00 | 0.00 | 43 | 998.2 |
| 20260509150044 | 56 | 335 | 5.2 | 11.3 | 0.00 | 0.00 | 0.00 | 48 | 998.2 |
| 20260509144542 | 55 | 325 | 5.2 | 11.3 | 0.00 | 0.00 | 0.00 | 48 | 998.2 |
| 20260509143042 | 53 | 328 | 0.9 | 7.8 | 0.00 | 0.00 | 0.00 | 52 | 997.9 |
| 20260509141541 | 53 | 0 | 1.7 | 11.3 | 0.00 | 0.00 | 0.00 | 52 | 997.6 |
| 20260509140045 | 53 | 347 | 4.3 | 10.4 | 0.00 | 0.00 | 0.00 | 50 | 997.6 |
| 20260509134542 | 53 | 296 | 1.7 | 7.8 | 0.00 | 0.00 | 0.00 | 55 | 997.4 |
| 20260509133040 | 52 | 327 | 4.3 | 7.8 | 0.00 | 0.00 | 0.00 | 56 | 997.2 |
| 20260509131540 | 50 | 339 | 2.6 | 7.8 | 0.00 | 0.00 | 0.00 | 62 | 997.4 |
| 20260509130053 | 48 | 340 | 3.5 | 7.0 | 0.00 | 0.00 | 0.00 | 70 | 997.3 |
| 20260509124552 | 46 | 308 | 0.9 | 4.3 | 0.00 | 0.00 | 0.00 | 76 | 997.4 |
| 20260509123044 | 46 | 229 | 0.0 | 3.5 | 0.00 | 0.00 | 0.00 | 79 | 997.3 |
| 20260509121545 | 45 | 215 | 0.0 | 3.5 | 0.00 | 0.00 | 0.00 | 90 | 997.2 |
| 20260509120041 | 44 | 0 | 0.0 | 3.5 | 0.00 | 0.00 | 0.00 | 93 | 997.3 |
| 20260509114557 | 43 | 0 | 0.0 | 0.9 | 0.00 | 0.00 | 0.00 | 93 | 996.9 |
| 20260509113043 | 42 | 0 | 0.0 | 2.6 | 0.00 | 0.00 | 0.00 | 93 | 996.7 |
| 20260509111543 | 41 | 210 | 0.0 | 3.5 | 0.00 | 0.00 | 0.00 | 93 | 996.5 |
| 20260509110045 | 40 | 210 | 0.0 | 4.3 | 0.00 | 0.00 | 0.00 | 92 | 996.5 |
| 20260509104542 | 40 | 211 | 1.7 | 5.2 | 0.00 | 0.00 | 0.00 | 92 | 996.5 |
| 20260509103050 | 39 | 0 | 0.0 | 6.1 | 0.00 | 0.00 | 0.00 | 93 | 996.6 |
| 20260509101556 | 38 | 189 | 0.0 | 2.6 | 0.00 | 0.00 | 0.00 | 90 | 996.6 |
| 20260509100205 | 38 | 187 | 2.6 | 5.2 | 0.00 | 0.00 | 0.00 | 90 | 996.7 |
| 20260509094553 | 38 | 0 | 1.7 | 4.3 | 0.00 | 0.00 | 0.00 | 91 | 997.0 |
| 20260509093043 | 38 | 0 | 0.0 | 3.5 | 0.00 | 0.00 | 0.00 | 90 | 997.3 |
| 20260509091543 | 38 | 0 | 0.0 | 0.9 | 0.00 | 0.00 | 0.00 | 89 | 997.5 |
| 20260509090048 | 38 | 0 | 0.0 | 2.6 | 0.00 | 0.00 | 0.00 | 90 | 997.6 |
| 20260509084547 | 38 | 0 | 0.0 | 0.0 | 0.00 | 0.00 | 0.00 | 89 | 997.4 |
| 20260509083054 | 38 | 0 | 0.0 | 0.0 | 0.00 | 0.00 | 0.00 | 88 | 997.5 |
| 20260509081541 | 37 | 0 | 0.0 | 0.0 | 0.00 | 0.00 | 0.00 | 89 | 997.9 |
| 20260509080048 | 37 | 0 | 0.0 | 1.7 | 0.00 | 0.00 | 0.00 | 88 | 997.9 |
| 20260509074551 | 37 | 0 | 0.0 | 0.0 | 0.00 | 0.00 | 0.00 | 88 | 998.0 |
| 20260509073042 | 37 | 0 | 0.0 | 1.7 | 0.00 | 0.00 | 0.00 | 88 | 998.3 |
| 20260509071544 | 36 | 141 | 0.0 | 2.6 | 0.00 | 0.00 | 0.00 | 89 | 998.7 |
| 20260509070043 | 36 | 0 | 0.0 | 2.6 | 0.00 | 0.00 | 0.00 | 89 | 998.8 |
| 20260509064543 | 35 | 0 | 0.0 | 1.7 | 0.00 | 0.00 | 0.00 | 88 | 999.1 |
| 20260509063040 | 36 | 142 | 0.9 | 2.6 | 0.00 | 0.00 | 0.00 | 88 | 999.4 |
| 20260509061537 | 36 | 142 | 0.0 | 1.7 | 0.00 | 0.00 | 0.00 | 88 | 999.6 |
| 20260509060059 | 36 | 0 | 0.0 | 1.7 | 0.00 | 0.00 | 0.00 | 87 | 999.5 |
| 20260509054547 | 37 | 0 | 0.0 | 2.6 | 0.00 | 0.00 | 0.00 | 87 | 1000.0 |
| 20260509053105 | 37 | 0 | 0.0 | 0.0 | 0.00 | 0.00 | 0.00 | 87 | 1000.3 |
| 20260509051547 | 37 | 0 | 0.0 | 1.7 | 0.00 | 0.00 | 0.00 | 87 | 1000.5 |
| 20260509050039 | 37 | 0 | 0.0 | 3.5 | 0.00 | 0.00 | 0.00 | 86 | 1000.8 |
| 20260509044611 | 37 | 142 | 2.6 | 6.1 | 0.00 | 0.00 | 0.00 | 86 | 1001.0 |
| 20260509043120 | 37 | 0 | 0.0 | 2.6 | 0.00 | 0.00 | 0.00 | 87 | 1000.8 |
| 20260509041542 | 37 | 133 | 0.0 | 1.7 | 0.00 | 0.00 | 0.00 | 86 | 1001.0 |
| 20260509040043 | 37 | 133 | 0.0 | 2.6 | 0.00 | 0.00 | 0.00 | 86 | 1001.3 |
| 20260509034544 | 37 | 0 | 0.9 | 2.6 | 0.00 | 0.00 | 0.00 | 87 | 1001.6 |
| 20260509033047 | 37 | 133 | 0.9 | 2.6 | 0.00 | 0.00 | 0.00 | 86 | 1001.9 |
| 20260509031557 | 38 | 0 | 0.0 | 1.7 | 0.00 | 0.00 | 0.00 | 85 | 1002.2 |
| 20260509030101 | 38 | 0 | 0.0 | 0.0 | 0.00 | 0.00 | 0.00 | 85 | 1002.6 |
| 20260509024543 | 38 | 133 | 1.7 | 2.6 | 0.00 | 0.00 | 0.00 | 83 | 1002.8 |
| 20260509023040 | 39 | 133 | 0.0 | 2.6 | 0.00 | 0.00 | 0.00 | 81 | 1003.0 |
| 20260509021541 | 40 | 0 | 0.0 | 1.7 | 0.00 | 0.00 | 0.00 | 81 | 1003.1 |
| 20260509020047 | 40 | 0 | 0.0 | 1.7 | 0.00 | 0.00 | 0.00 | 80 | 1003.1 |
| 20260509014544 | 41 | 133 | 0.0 | 2.6 | 0.00 | 0.00 | 0.00 | 78 | 1003.1 |
| 20260509013043 | 43 | 133 | 0.0 | 2.6 | 0.00 | 0.00 | 0.00 | 75 | 1003.0 |
| 20260509011540 | 45 | 0 | 0.0 | 2.6 | 0.00 | 0.00 | 0.00 | 72 | 1003.0 |
| 20260509010040 | 47 | 0 | 0.0 | 2.6 | 0.00 | 0.00 | 0.00 | 65 | 1002.9 |
| 20260509004552 | 48 | 0 | 0.0 | 3.5 | 0.00 | 0.00 | 0.00 | 63 | 1002.8 |
| 20260509003049 | 49 | 133 | 0.9 | 4.3 | 0.00 | 0.00 | 0.00 | 62 | 1002.7 |
| 20260509001542 | 50 | 152 | 0.0 | 1.7 | 0.00 | 0.00 | 0.00 | 60 | 1002.8 |
| 20260509000041 | 51 | 153 | 0.9 | 4.3 | 0.00 | 0.00 | 0.00 | 59 | 1002.8 |
| 20260508234542 | 51 | 174 | 1.7 | 7.8 | 0.00 | 0.00 | 0.00 | 57 | 1002.9 |
| 20260508233042 | 51 | 171 | 0.0 | 4.3 | 0.00 | 0.00 | 0.00 | 55 | 1003.1 |
| 20260508231540 | 52 | 167 | 1.7 | 11.3 | 0.00 | 0.00 | 0.00 | 53 | 1003.1 |
| 20260508230038 | 53 | 184 | 3.5 | 9.6 | 0.00 | 0.00 | 0.00 | 56 | 1003.0 |
| 20260508224556 | 54 | 212 | 2.6 | 8.7 | 0.00 | 0.00 | 0.00 | 54 | 1003.3 |
| 20260508223049 | 55 | 195 | 2.6 | 8.7 | 0.00 | 0.00 | 0.00 | 52 | 1003.5 |
| 20260508221541 | 56 | 214 | 2.6 | 9.6 | 0.00 | 0.00 | 0.00 | 48 | 1003.7 |
| 20260508220051 | 56 | 0 | 1.7 | 7.8 | 0.00 | 0.00 | 0.00 | 45 | 1003.7 |
| 20260508214540 | 57 | 208 | 3.5 | 8.7 | 0.00 | 0.00 | 0.00 | 46 | 1003.9 |
| 20260508213044 | 57 | 210 | 4.3 | 9.6 | 0.00 | 0.00 | 0.00 | 44 | 1004.0 |
| 20260508211548 | 56 | 180 | 3.5 | 12.2 | 0.00 | 0.00 | 0.00 | 44 | 1004.1 |
| 20260508210046 | 56 | 197 | 5.2 | 13.9 | 0.00 | 0.00 | 0.00 | 49 | 1004.2 |
| 20260508204541 | 57 | 210 | 4.3 | 12.2 | 0.00 | 0.01 | 0.00 | 48 | 1004.3 |
| 20260508203043 | 58 | 206 | 5.2 | 12.2 | 0.00 | 0.01 | 0.00 | 46 | 1004.4 |
| 20260508201539 | 57 | 200 | 6.1 | 14.8 | 0.00 | 0.01 | 0.00 | 45 | 1004.4 |
| 20260508200043 | 58 | 179 | 6.1 | 14.8 | 0.00 | 0.01 | 0.00 | 44 | 1004.6 |
| 20260508194543 | 58 | 180 | 7.0 | 14.8 | 0.00 | 0.01 | 0.00 | 40 | 1004.7 |
| 20260508193041 | 58 | 165 | 6.1 | 14.8 | 0.00 | 0.01 | 0.00 | 43 | 1004.9 |
| 20260508191547 | 58 | 202 | 3.5 | 12.2 | 0.00 | 0.01 | 0.00 | 43 | 1005.1 |
| 20260508190046 | 57 | 199 | 4.3 | 9.6 | 0.00 | 0.01 | 0.00 | 60 | 1005.1 |
| 20260508184546 | 55 | 245 | 2.6 | 9.6 | 0.00 | 0.01 | 0.00 | 56 | 1005.3 |
| 20260508183045 | 54 | 249 | 2.6 | 9.6 | 0.00 | 0.01 | 0.00 | 58 | 1005.6 |
| 20260508181554 | 52 | 248 | 4.3 | 9.6 | 0.00 | 0.01 | 0.00 | 61 | 1005.8 |
| 20260508180041 | 52 | 216 | 2.6 | 9.6 | 0.00 | 0.01 | 0.00 | 62 | 1006.2 |
| 20260508174544 | 52 | 218 | 4.3 | 8.7 | 0.00 | 0.01 | 0.00 | 62 | 1006.4 |